Hourly Data Report for September 21, 2020

SHEARWATER RCS
NOVA SCOTIA
Current Station Operator: ECCC - MSC

44°37'47.000" N
63°30'48.000" W
24.00 m
8205092
71264
AAW

Download Data

Hourly Data (September 2020)
Hourly Data Report for September 21, 2020
TIME Temp Definition
°C
Dew Point Definition
°C
Rel Hum Definition
%
Wind Dir Definition
10's deg

Wind Spd Definition
km/h
Visibility Definition
km
Stn Press Definition
kPa
Hmdx Definition


Wind Chill Definition


Weather Definition


00:00 6.9 2.5 73 36 9   103.05     LegendNANA
01:00 7.6 2.4 69 36 11   103.05     LegendNANA
02:00 7.3 2.3 71 36 12   103.04     LegendNANA
03:00 7.3 2.2 70 36 11   103.07     LegendNANA
04:00 7.5 2.6 71 36 12   103.10     LegendNANA
05:00 7.1 2.8 74 1 7   103.14     LegendNANA
06:00 4.9 2.6 85 33 8   103.15     LegendNANA
07:00 6.2 3.1 80 35 7   103.22     LegendNANA
08:00 9.0 4.3 72 35 6   103.19     LegendNANA
09:00 11.6 4.0 60 35 12   103.16     LegendNANA
10:00 13.3 4.2 54 2 13   103.19     LegendNANA
11:00 14.4 2.4 44 4 13   103.10     LegendNANA
12:00 15.1 3.3 45 5 10   103.07     LegendNANA
13:00 15.1 2.7 43 6 9   103.03     LegendNANA
14:00 15.5 2.2 41 3 8   102.95     LegendNANA
15:00 15.5 4.0 46 6 11   102.89     LegendNANA
16:00 14.8 5.4 53 12 9   102.80     LegendNANA
17:00 13.5 5.8 60 13 8   102.78     LegendNANA
18:00 12.2 6.4 68 9 4   102.76     LegendNANA
19:00 11.6 6.4 71 2 5   102.75     LegendNANA
20:00 11.1 6.7 74 2 6   102.72     LegendNANA
21:00 10.5 6.2 75 1 7   102.66     LegendNANA
22:00 9.8 5.4 74 2 9   102.59     LegendNANA
23:00 9.1 4.6 73 4 5   102.54     LegendNANA

Notes on Data Quality.

Legend

  • E = Estimated
  • M = Missing
  • NA = Not Available*
  • [empty] = Indicates an unobserved value
Date modified: